{"data":{"norad_id":69781,"epoch":"2026-09-20T04:33:44.030016Z","epoch_age_seconds":52249,"freshness":"FRESH","line1":"1 69781U 26151U   26263.19009294 -.00002269  00000+0 -26867-3 0  9991","line2":"2 69781  51.8990 228.0437 0001123 110.2478 249.8605 14.79944388 12162","mean_motion":14.79944388,"eccentricity":0.0001123,"inclination_deg":51.899,"raan_deg":228.0437,"arg_perigee_deg":110.2478,"mean_anomaly_deg":249.8605,"bstar":-0.00026867,"rev_number":1216,"period_min":97.300953446367,"perigee_km":628.71272271227,"apogee_km":630.28663791067,"semimajor_km":7007.6366803115,"source":"CELESTRAK","updated_at":"2026-09-20T09:00:25.093235Z"}}